ECMWFFLT2_850_rhum_144.txt.gz
RH
60 71 79 77 68 64 65 65 67 79 93 98 100 95 89 90 89 86 81 76 74 73 76 77 71 70 68 65 69 72 77 86 91 92 91 87 89 95 97 97 98 97 95 93 92 90 89 88 86 85 85 85
62 74 82 78 73 71 65 66 72 81 94 100 101 94 87 90 89 80 77 79 79 75 76 77 73 73 75 76 76 73 69 71 77 86 94 90 85 88 91 95 97 96 95 93 91 90 87 87 87 85 85 83
65 78 89 91 91 86 69 69 84 89 96 101 96 89 84 81 80 78 77 81 81 76 75 72 71 73 76 82 85 83 81 76 75 84 91 85 81 83 87 92 95 94 91 91 89 87 85 86 85 84 87 78
66 78 94 101 100 96 83 74 75 74 79 87 85 82 81 76 73 76 80 83 81 77 75 70 70 72 74 83 84 85 89 84 78 78 76 71 70 78 85 86 91 93 88 88 88 85 86 87 85 85 82 64
68 77 91 101 100 100 96 85 74 69 68 71 75 75 75 74 70 71 76 80 81 78 74 72 74 74 76 81 79 81 83 75 68 66 65 61 56 65 75 78 85 92 90 89 88 87 86 85 84 79 67 51
75 76 83 93 99 101 100 95 87 80 74 75 79 75 68 68 71 73 74 76 78 76 70 70 77 79 80 79 74 79 76 63 64 67 66 62 51 57 72 80 87 90 90 90 88 87 85 81 76 66 54 47
78 82 79 82 92 99 100 100 96 87 83 86 85 81 74 73 76 75 75 78 77 72 65 62 72 79 77 75 72 76 73 60 66 73 73 74 64 61 71 85 95 91 89 90 89 88 85 80 71 57 47 43
77 86 83 78 84 94 100 101 100 93 88 91 90 85 82 81 81 78 75 76 72 68 63 55 60 70 67 70 72 76 80 67 68 79 80 84 79 69 72 89 96 91 90 89 89 88 83 82 73 54 41 35
76 82 86 83 79 84 96 100 101 99 96 97 96 90 86 84 80 78 75 71 67 66 64 55 55 61 58 65 77 85 93 78 72 82 75 70 74 75 79 93 97 89 88 86 86 81 73 79 75 53 35 28
82 79 83 88 80 73 82 92 94 99 101 101 99 93 91 87 79 76 74 71 70 67 63 58 55 56 53 60 77 90 95 81 75 78 66 57 65 73 79 89 94 89 85 81 80 72 60 64 66 49 32 24
87 82 79 87 90 83 81 88 92 96 100 100 99 97 97 93 82 75 73 73 72 69 65 60 55 55 54 55 69 84 85 74 68 63 57 56 58 65 75 82 84 84 83 77 75 69 57 52 52 45 33 28
84 86 83 81 89 94 91 95 97 92 92 97 99 98 101 95 83 77 75 73 70 68 66 63 60 58 59 57 60 72 74 67 59 51 51 53 51 56 71 78 76 74 74 71 68 64 58 49 46 43 34 32
82 87 89 82 82 87 88 95 96 89 86 93 100 99 101 94 83 80 76 73 74 72 68 66 66 64 63 61 59 64 67 64 57 51 49 48 45 48 63 73 72 70 68 64 60 58 59 54 48 43 33 26
89 90 92 91 86 81 83 94 97 95 93 95 100 99 101 98 90 86 78 76 82 78 71 68 68 69 68 64 62 63 63 63 59 57 55 53 45 41 55 69 70 68 64 59 54 55 59 58 52 45 33 23
98 98 98 99 97 91 89 97 100 100 98 98 101 100 101 101 98 94 83 83 88 83 78 73 69 72 73 70 66 65 65 65 64 64 61 60 52 40 46 62 69 68 65 60 56 58 59 58 54 47 35 24
100 100 100 100 100 99 97 98 100 100 100 99 100 100 100 100 101 99 93 92 94 91 87 81 75 75 77 75 71 69 70 70 70 71 67 63 56 43 42 55 63 64 67 70 69 69 65 60 56 50 40 30
100 100 100 101 100 100 99 99 100 99 100 101 100 100 99 99 100 100 99 99 99 99 95 90 84 80 80 79 78 76 73 73 73 76 74 68 59 47 45 54 59 60 64 72 77 79 75 67 59 53 47 39
88 96 98 99 101 101 100 99 99 101 100 99 101 101 100 100 100 100 100 100 100 101 99 97 93 87 85 85 87 86 78 76 76 77 78 74 66 54 47 49 53 54 56 61 70 77 77 73 65 57 50 44
53 71 83 87 93 98 101 102 99 99 100 99 100 100 101 100 100 100 100 100 100 100 100 100 99 94 89 89 93 94 86 81 80 80 81 79 75 66 55 49 47 46 47 50 57 65 69 70 66 60 53 47
19 32 47 58 70 77 85 97 102 101 99 98 99 100 101 100 100 100 100 101 99 100 101 100 101 100 95 91 92 96 93 89 88 88 87 85 84 79 69 63 57 49 43 42 44 49 53 53 52 50 47 45
9 11 16 26 40 49 54 65 81 96 100 97 96 96 98 100 101 100 100 101 101 100 100 99 99 101 100 96 94 97 98 97 96 97 96 94 92 88 82 76 70 55 42 38 37 35 36 36 35 35 34 34
9 9 9 9 15 26 36 36 39 60 81 91 96 96 96 98 99 101 101 100 101 100 100 100 99 100 101 100 98 99 100 100 100 100 99 98 96 93 92 88 80 62 42 34 34 33 32 32 32 31 31 30
11 10 10 10 7 11 19 23 19 23 40 59 77 88 95 99 98 99 100 100 101 101 100 100 100 100 100 100 100 100 100 100 100 99 96 96 95 95 96 96 91 78 56 38 32 31 29 29 29 28 29 30
14 13 11 11 10 9 8 11 13 12 14 23 35 51 67 83 94 99 100 99 100 100 100 100 100 101 100 99 100 100 101 100 100 100 97 94 93 93 96 99 98 92 77 56 39 33 28 24 22 20 20 22
12 12 12 11 10 10 8 7 8 9 9 10 12 18 27 42 63 81 93 98 99 100 100 100 100 100 101 100 100 100 100 100 100 100 99 98 96 95 97 100 100 98 92 77 59 50 43 32 23 17 14 13
10 10 10 10 10 8 9 8 7 7 7 7 8 9 10 15 25 41 59 74 86 94 97 99 99 100 101 100 100 100 100 100 100 100 100 100 99 98 99 100 100 100 98 93 82 73 65 52 38 27 18 13
11 12 10 9 10 9 9 8 7 8 7 7 7 7 7 9 12 16 24 37 54 71 85 94 99 99 100 100 100 100 100 100 100 100 100 100 100 100 100 100 100 100 99 99 96 90 83 77 67 53 36 21
14 14 12 11 10 9 9 8 8 8 7 7 7 7 6 6 8 11 14 19 27 43 61 79 93 99 100 99 99 99 100 100 100 100 100 100 101 100 100 100 99 100 100 99 99 98 95 94 89 79 61 37
18 16 14 12 10 10 9 8 8 8 8 8 7 6 7 6 6 7 9 13 16 24 37 53 72 89 98 100 99 98 99 100 100 100 100 100 100 100 100 100 100 100 100 99 100 100 99 99 95 89 82 64
23 22 20 17 14 12 10 8 8 8 7 7 7 6 6 6 6 5 6 7 10 13 20 29 42 61 80 93 98 99 99 99 100 100 100 100 100 100 100 100 101 100 100 100 100 100 99 99 98 95 93 88
29 28 27 25 24 20 14 11 8 7 7 6 6 6 6 6 5 6 5 4 6 7 10 15 22 34 51 70 86 95 98 99 100 100 100 100 100 100 100 100 101 100 100 101 100 101 100 99 100 99 99 96

ECMWFFLT2_850_rhum_150.txt.gz
RH
23 26 37 46 53 60 66 63 66 75 70 72 74 75 83 83 88 93 90 95 94 95 98 94 92 90 82 79 82 90 89 78 83 96 98 93 84 77 77 81 84 85 88 94 95 95 99 95 92 94 89 90
20 21 34 49 55 65 76 73 77 87 86 87 84 83 93 92 91 96 98 97 93 89 83 79 80 79 77 75 78 90 90 77 80 93 96 89 75 69 69 68 68 67 71 87 95 93 97 100 98 95 93 94
17 17 28 48 58 68 79 80 86 93 94 97 92 90 95 88 82 84 86 83 79 76 72 71 73 73 73 71 75 86 89 88 92 97 99 89 79 79 77 70 69 68 66 79 92 93 93 96 99 98 93 91
15 15 22 42 59 70 81 85 93 98 97 99 97 96 92 83 81 80 76 74 72 74 75 72 70 70 69 67 68 73 82 92 97 100 100 91 85 88 84 76 75 80 80 81 87 92 93 93 95 96 92 88
14 17 25 42 59 71 82 88 96 100 99 100 99 99 98 93 92 90 82 79 80 82 82 76 70 67 66 67 67 70 81 94 98 99 98 91 88 90 87 81 81 87 86 82 84 91 94 93 92 93 92 89
17 24 35 51 65 74 81 90 99 101 99 101 100 100 100 99 96 95 92 89 89 90 91 89 80 71 67 67 67 70 78 93 101 98 97 95 93 93 88 85 88 85 73 71 80 88 93 92 92 91 91 90
25 34 46 59 70 78 82 87 96 100 100 100 100 100 100 99 94 90 92 95 95 90 89 92 88 78 71 68 68 68 70 86 100 99 97 97 95 91 84 81 85 78 65 69 82 88 91 91 92 91 89 88
34 43 55 66 72 79 84 86 90 96 100 100 100 100 99 100 97 92 91 94 93 88 87 90 93 86 76 73 73 71 73 87 98 99 97 93 86 83 80 74 72 71 67 71 82 89 89 87 89 91 88 85
47 52 61 70 76 83 87 89 91 95 99 99 97 94 91 94 100 98 93 93 91 90 89 88 95 95 84 79 81 82 88 97 97 93 93 87 76 76 81 75 64 66 70 72 82 93 93 89 88 87 87 85
57 62 66 70 78 85 91 95 96 97 98 100 97 92 87 85 95 101 95 91 89 91 90 88 96 98 86 77 82 87 91 98 95 89 87 78 70 71 73 72 68 66 66 67 78 93 95 95 90 80 81 86
50 58 66 72 76 79 85 93 98 99 98 99 99 99 94 84 89 100 99 93 91 92 93 95 98 99 89 76 75 80 85 92 94 93 88 73 63 63 63 72 79 75 68 64 74 90 93 93 90 76 70 75
35 39 47 59 68 73 77 81 87 92 96 98 98 99 100 95 94 98 100 100 98 96 97 99 100 100 96 82 72 77 84 89 95 97 88 70 58 57 60 76 90 88 79 71 78 90 91 90 90 81 69 65
23 26 29 36 43 53 63 70 73 77 83 89 93 95 96 97 99 98 98 100 100 100 99 100 99 100 101 89 72 75 85 87 92 96 86 69 59 57 58 70 88 90 80 77 87 93 92 90 89 87 81 74
16 19 21 23 24 26 35 47 57 63 69 74 80 86 89 92 95 97 99 100 100 100 100 100 100 99 101 97 78 73 83 84 81 82 81 73 68 69 63 64 77 79 69 74 90 95 93 92 89 89 86 83
17 16 17 18 19 18 18 22 31 42 51 58 63 67 72 80 87 93 97 99 100 100 100 99 101 100 99 100 88 75 78 80 76 71 72 74 80 88 79 69 74 75 65 67 85 95 94 92 89 89 88 85
17 17 17 16 17 17 17 16 16 19 26 34 42 46 50 57 68 81 89 95 98 99 101 100 99 101 100 101 95 84 78 75 73 70 70 76 87 96 92 83 80 80 72 68 81 93 94 94 91 91 91 87
12 13 14 15 16 16 16 17 16 15 14 16 21 27 34 39 45 56 70 84 93 95 98 100 100 100 100 100 99 95 88 81 77 74 73 84 96 97 96 94 87 84 76 68 79 91 93 95 94 93 93 88
8 8 9 10 12 13 14 15 16 16 14 13 13 15 19 25 29 32 40 57 77 90 93 95 98 100 100 100 100 100 98 94 94 87 80 88 100 97 95 94 90 87 75 64 75 91 94 92 94 93 91 87
6 7 7 8 8 9 10 11 13 14 14 13 12 12 12 14 17 18 20 27 43 67 85 93 94 96 99 101 100 100 101 99 100 99 93 93 98 97 94 92 91 88 76 64 68 86 96 92 89 88 83 79
6 7 6 7 8 8 9 9 9 10 11 12 12 12 12 11 12 12 14 15 17 31 55 79 92 95 95 97 100 99 100 100 99 100 100 99 99 99 96 93 92 87 79 70 63 75 95 95 87 84 79 74
7 7 6 7 8 8 8 8 8 9 9 10 10 11 10 11 11 10 10 12 12 13 22 42 69 89 95 94 97 99 100 100 100 100 100 101 100 100 99 96 96 92 86 79 65 65 86 95 90 86 81 76
8 7 6 6 6 8 10 10 9 9 9 9 9 10 10 9 9 9 9 9 9 11 13 18 33 57 80 90 94 97 100 100 100 101 100 100 100 100 101 99 98 97 93 91 77 64 73 87 89 83 79 76
8 7 6 6 6 6 8 11 13 11 10 9 8 8 9 9 8 8 8 8 7 7 10 14 19 29 47 69 83 90 96 99 100 100 100 100 101 100 100 99 98 98 98 97 87 70 65 76 86 85 81 80
10 8 7 6 7 7 9 12 14 15 14 11 9 9 8 8 8 8 7 7 7 6 7 10 17 23 30 44 62 73 83 92 96 98 99 99 100 100 100 100 99 99 100 99 93 81 70 69 77 83 81 78
13 11 9 9 10 12 13 14 15 18 18 15 12 9 8 8 7 7 7 6 6 6 6 7 10 18 28 37 49 58 66 78 87 92 96 98 100 100 100 100 100 100 100 100 96 89 82 75 72 73 73 70
20 18 16 16 20 22 21 19 18 19 20 20 17 13 10 9 8 7 7 6 6 5 5 5 6 10 20 34 49 59 60 65 75 82 88 93 97 99 100 100 100 100 100 100 96 90 88 88 84 81 82 81
26 29 26 24 25 27 26 24 20 19 20 22 22 20 16 12 10 8 7 7 6 6 5 4 5 5 9 19 38 54 61 63 65 70 78 85 89 93 98 100 100 100 100 99 99 96 96 97 96 94 92 92
26 31 35 35 32 29 28 26 25 22 22 24 24 24 23 19 16 12 9 8 7 6 6 5 5 5 5 7 16 33 51 64 69 70 73 78 83 86 92 97 99 100 100 100 100 100 100 99 99 98 95 93
22 27 38 45 46 45 42 41 41 34 27 28 27 28 29 27 24 21 15 11 9 7 7 6 6 5 5 5 5 12 27 47 67 78 81 81 82 84 87 93 96 98 99 100 100 99 100 99 99 99 97 94
21 25 39 47 49 52 51 49 48 40 33 31 32 33 34 33 32 29 26 21 15 12 9 8 7 6 6 6 5 5 8 19 38 61 78 86 88 87 88 91 95 96 96 96 99 100 99 99 99 99 98 97
21 25 38 48 51 52 53 54 50 43 38 35 35 36 36 38 38 35 33 30 26 22 17 13 11 10 8 7 7 6 6 6 12 25 46 67 83 93 95 95 96 96 95 94 96 99 99 100 100 99 99 99

ECMWFFLT2_850_rhum_156.txt.gz
RH
16 17 18 20 23 27 36 47 62 74 86 96 94 97 99 96 97 100 95 92 91 89 92 88 84 85 85 81 74 70 74 76 75 77 79 77 75 75 71 73 85 93 97 97 94 96 93 90 88 89 93 95
16 17 18 20 24 29 36 44 55 67 78 87 90 94 98 99 99 100 99 99 97 95 96 93 88 85 82 82 80 79 73 72 79 83 85 82 74 73 76 75 71 71 81 89 94 100 98 96 93 94 97 98
16 16 18 18 20 23 29 35 43 52 64 74 83 87 89 94 97 98 97 98 98 99 100 98 94 89 85 85 84 87 81 74 80 86 88 87 82 82 85 83 74 66 70 77 87 98 99 100 100 98 100 99
17 17 17 17 17 18 19 22 28 34 44 55 67 76 79 82 87 91 92 91 91 93 98 100 98 95 91 89 88 90 87 81 81 83 86 91 94 95 89 83 78 72 73 74 80 86 85 93 99 98 100 99
18 18 18 18 17 17 17 17 19 21 26 34 44 57 67 71 75 80 84 84 83 83 90 98 99 98 95 91 93 94 90 86 82 81 86 92 97 100 94 90 84 72 71 72 73 75 75 82 87 89 97 100
20 20 19 19 19 18 18 18 17 17 18 21 25 34 45 55 61 65 72 77 78 78 79 89 96 99 98 94 96 99 96 90 86 87 89 90 94 98 99 99 94 82 76 74 71 72 78 83 78 81 93 96
21 21 21 20 20 20 19 19 19 19 18 18 18 20 25 33 41 47 55 64 70 73 72 75 82 89 94 95 96 98 100 98 95 95 94 93 95 98 99 98 98 94 88 83 78 74 80 84 79 78 82 89
22 22 22 21 22 21 21 21 19 19 19 19 18 18 19 20 24 29 36 45 55 64 67 68 70 75 82 88 94 97 99 100 98 99 98 98 98 99 99 95 92 92 89 85 82 78 78 79 79 77 74 78
23 23 23 22 22 22 22 22 21 21 20 20 19 19 19 18 18 19 22 27 35 46 56 63 65 67 70 76 86 93 99 99 97 98 99 99 99 99 100 98 92 85 81 79 79 77 75 75 73 74 78 76
24 24 23 23 22 22 22 22 21 22 21 21 21 20 19 19 19 18 18 19 21 28 39 50 57 60 62 66 74 84 95 99 99 98 97 99 99 98 99 100 97 90 80 76 78 74 72 75 74 72 77 81
24 24 23 23 22 22 22 21 21 21 21 20 20 21 20 20 20 19 18 18 18 19 23 31 39 46 50 54 61 70 83 94 100 99 97 98 98 98 96 94 94 94 86 76 77 76 71 74 80 79 79 82
24 24 23 23 22 22 20 20 20 18 17 18 18 18 19 20 20 20 19 18 17 16 17 19 23 28 33 39 47 55 65 79 93 99 100 99 99 98 97 96 95 98 94 80 74 78 76 74 76 79 82 87
23 22 20 18 16 14 13 13 12 11 11 11 12 12 13 15 16 18 18 17 16 15 15 15 16 18 21 25 31 38 46 58 75 89 96 98 99 99 98 99 99 100 99 90 81 79 78 76 73 71 73 84
21 18 14 11 9 7 6 6 6 5 5 5 5 6 6 7 9 11 13 14 14 14 13 13 13 13 15 17 19 24 30 38 52 69 84 92 97 100 100 99 99 100 99 94 90 88 86 83 78 69 63 70
19 15 11 8 7 7 6 5 5 4 4 4 3 3 4 3 4 5 6 8 9 10 11 11 11 11 11 13 14 16 19 24 32 47 65 80 89 95 100 100 99 100 100 96 92 92 93 92 85 70 57 56
17 12 9 8 7 7 6 6 6 5 5 4 4 4 3 3 3 3 3 4 5 6 7 8 8 8 9 10 11 13 14 17 20 28 43 63 79 87 94 99 100 99 100 100 96 94 93 93 89 78 59 48
15 11 9 8 8 7 7 7 6 6 6 5 5 4 4 4 3 3 3 3 3 3 4 5 6 6 7 7 8 10 11 13 15 19 25 39 60 77 86 92 99 100 99 100 99 99 97 95 95 92 76 53
14 12 12 11 11 9 8 7 7 6 6 6 5 5 5 4 4 4 4 4 3 3 3 3 4 5 6 6 7 8 9 10 12 15 18 24 38 60 78 84 91 98 100 100 99 100 100 98 98 99 94 70
14 14 16 16 15 15 13 10 9 8 7 7 6 5 5 4 4 4 4 5 4 4 4 3 4 4 5 5 6 6 7 8 10 12 15 20 26 40 62 77 83 90 97 100 100 100 100 99 98 97 100 89
18 18 19 19 17 17 18 17 15 12 9 7 6 6 6 5 5 5 5 5 5 5 5 5 4 4 5 5 5 6 6 6 8 9 11 19 27 31 43 62 75 82 89 96 99 100 100 99 100 98 99 97
20 21 23 21 18 16 19 22 22 20 16 13 10 7 6 5 5 5 5 6 6 6 6 6 6 5 5 5 5 6 6 6 6 8 10 16 28 34 37 47 61 72 79 85 91 97 100 99 100 100 98 97
22 22 24 23 21 18 18 20 24 26 26 23 18 13 10 7 6 6 5 6 7 7 8 8 7 7 6 5 5 5 6 7 6 6 8 11 21 35 44 46 47 56 68 77 82 85 93 98 99 101 99 95
21 20 22 22 22 20 19 19 21 26 32 31 26 23 19 13 8 6 6 6 6 7 8 9 8 8 7 6 6 6 6 6 6 6 6 8 13 26 45 57 55 52 55 65 76 78 80 88 93 98 101 96
20 20 20 21 22 21 21 20 20 25 32 32 31 33 32 27 17 10 7 7 6 7 8 9 10 9 9 8 7 6 6 6 6 6 5 6 8 17 37 57 64 60 56 58 66 73 75 78 85 90 97 100
20 20 21 22 24 24 25 24 22 25 28 30 34 39 41 38 30 19 11 8 8 7 8 9 10 11 10 9 9 8 7 7 6 6 6 6 6 14 32 51 61 62 61 60 60 64 69 70 76 83 89 95
21 20 22 24 26 27 29 30 28 26 26 28 34 42 44 41 36 29 22 14 11 9 8 9 10 12 12 11 10 10 9 9 8 8 6 6 6 8 22 49 72 76 70 70 70 67 68 68 68 77 87 93
23 22 23 25 28 31 33 33 31 28 26 28 35 42 43 39 37 37 34 26 18 12 9 9 10 11 13 13 13 11 11 11 10 10 8 7 7 6 9 28 62 87 89 86 82 76 75 76 74 74 80 90
26 24 24 28 31 34 35 35 33 30 27 29 35 39 38 37 41 42 41 37 32 24 17 12 11 12 12 13 14 13 12 13 13 12 12 10 8 8 6 8 28 65 93 99 91 85 85 83 85 87 83 84
29 27 26 29 33 34 35 35 35 32 29 30 32 33 34 38 44 44 44 46 44 41 34 24 17 15 15 13 13 14 14 14 16 16 14 14 12 10 9 6 7 29 65 93 99 97 94 90 92 95 90 84
33 30 28 30 33 33 35 36 35 34 31 30 28 28 30 33 40 46 50 52 52 52 51 44 33 25 21 19 15 14 15 14 16 19 18 16 15 13 11 10 7 9 27 60 90 101 99 98 99 97 93 91
37 34 30 31 33 35 36 37 36 35 31 26 24 24 25 28 35 45 51 54 54 55 56 55 50 41 34 30 24 18 17 17 16 19 22 20 18 17 14 13 12 9 9 21 50 79 94 100 100 99 98 98

ECMWFFLT2_850_rhum_162.txt.gz
RH
17 16 16 16 16 16 16 16 15 16 15 16 16 17 19 23 29 35 42 47 51 57 59 62 66 70 71 70 69 68 71 77 81 83 87 92 92 92 94 95 92 90 89 86 86 87 88 80 72 69 68 72
15 15 14 14 13 13 13 13 13 13 13 13 13 14 15 15 17 20 24 29 34 39 43 46 50 56 61 63 65 66 66 70 77 82 83 88 94 95 91 90 88 86 84 83 83 88 93 88 79 74 72 76
14 13 12 11 10 9 9 8 8 8 9 9 9 9 9 10 11 12 14 16 19 23 26 30 34 38 44 49 54 59 62 64 69 76 82 85 92 98 96 92 89 88 90 88 85 89 96 95 89 82 77 79
13 11 10 9 8 7 6 5 5 4 5 5 5 5 4 5 5 6 7 8 10 12 14 17 21 24 28 33 37 43 49 55 59 64 74 81 88 93 95 94 91 91 93 93 90 90 94 95 95 94 87 82
10 9 8 7 6 5 4 3 4 3 3 3 3 3 3 3 2 3 3 3 4 5 7 8 11 13 16 20 23 28 32 39 47 53 59 67 78 83 85 87 88 90 91 92 92 90 90 89 90 94 95 92
8 7 6 5 4 4 3 3 3 3 3 3 3 3 2 3 2 3 2 2 2 2 3 3 4 5 7 10 13 17 21 25 32 41 47 53 62 72 78 81 84 88 88 88 89 89 88 85 83 84 86 91
7 6 4 4 4 4 4 4 4 3 3 3 3 3 3 3 3 3 3 3 3 3 3 2 2 2 3 4 5 8 11 15 20 27 35 41 47 57 68 76 81 86 87 85 84 85 84 84 84 81 78 78
6 5 5 4 4 4 4 4 4 4 4 4 4 4 4 4 4 3 3 3 3 3 3 3 3 3 2 2 2 3 4 6 9 14 20 27 33 41 51 61 71 79 84 86 85 84 82 85 88 86 80 75
6 5 5 5 5 5 5 5 5 5 4 5 4 4 5 4 4 4 4 4 4 3 3 3 3 3 3 3 3 2 2 2 3 5 8 13 19 27 34 43 53 62 70 79 87 90 88 90 93 92 86 79
7 7 6 6 6 6 6 6 6 6 5 5 5 5 5 5 5 5 4 4 4 4 4 3 4 3 3 3 3 3 3 3 2 2 3 5 8 12 18 25 33 38 46 57 72 85 89 90 93 94 92 85
9 8 7 7 7 7 7 7 7 7 7 6 6 6 6 6 5 5 5 5 5 5 4 4 4 4 4 3 4 3 3 3 3 3 2 2 3 4 6 10 16 21 26 32 43 59 73 81 84 88 91 89
10 9 8 8 8 9 8 9 8 8 8 8 7 7 7 6 6 6 6 6 5 5 5 5 5 5 5 4 4 4 3 4 3 3 3 3 3 2 2 3 4 8 12 16 22 31 45 59 71 78 82 85
11 10 9 9 9 10 9 9 10 9 9 9 9 8 8 7 7 7 7 7 6 6 6 6 6 5 5 5 5 5 4 4 4 4 4 3 3 3 3 3 2 2 4 7 10 15 21 33 49 63 73 79
13 11 10 10 10 10 10 10 10 10 11 10 10 10 9 9 8 8 8 8 7 7 7 7 7 6 6 6 5 5 5 5 4 4 4 4 4 3 3 3 3 3 2 2 4 7 10 16 26 41 58 73
13 12 10 11 10 11 11 11 11 11 11 11 11 11 11 11 10 10 9 9 9 8 8 8 7 7 7 7 6 6 6 5 5 5 5 4 4 4 4 4 3 3 3 3 2 2 4 8 13 21 35 57
14 12 11 11 11 12 12 12 12 12 12 12 12 12 12 12 11 11 11 10 10 10 9 9 9 8 8 8 7 7 7 6 6 5 5 5 5 4 4 4 4 4 3 3 3 3 3 3 5 10 18 33
14 12 12 12 12 13 13 13 13 13 14 13 13 13 12 13 13 13 13 12 12 11 11 10 10 10 9 9 8 8 7 7 7 6 6 5 5 5 5 5 4 4 4 4 3 3 3 2 3 4 7 15
15 13 13 13 13 13 14 14 15 15 15 15 15 15 14 14 14 14 14 14 13 13 13 12 12 11 11 10 10 9 8 8 7 7 7 6 6 5 5 5 5 4 4 4 4 3 3 3 3 2 3 7
16 14 14 14 13 14 14 15 16 16 17 17 17 16 16 16 16 16 15 15 14 14 14 14 13 13 12 12 11 10 10 9 8 8 7 6 6 6 5 5 5 5 4 4 4 4 4 3 3 3 2 3
17 15 15 15 14 14 15 16 17 18 18 18 19 18 18 18 18 17 17 16 16 16 16 15 15 14 14 13 12 11 10 10 9 8 8 7 6 6 6 6 5 5 5 5 4 4 4 4 3 3 3 2
17 16 16 15 15 15 16 17 17 18 19 20 20 20 20 20 19 19 19 18 18 18 17 17 16 16 15 14 14 12 12 10 10 9 8 8 7 6 6 6 6 5 5 5 5 5 4 4 4 3 4 3
16 16 17 17 16 16 17 18 19 19 20 21 22 22 22 21 21 21 20 20 20 19 19 18 18 17 17 16 15 14 13 12 10 10 9 9 8 7 7 6 6 6 5 5 4 4 4 4 4 3 3 4
16 16 17 18 17 17 18 18 20 21 21 22 23 24 24 23 23 22 22 22 21 21 20 20 19 19 18 17 17 16 15 14 12 11 10 9 9 8 7 7 7 6 6 5 5 5 5 4 4 4 4 3
17 17 18 18 18 18 19 19 20 22 22 23 24 25 25 25 25 23 23 23 23 23 22 21 20 20 19 18 18 17 16 16 15 14 13 11 9 9 8 8 7 7 6 6 5 5 5 5 4 4 4 4
17 17 18 19 19 19 20 21 22 22 23 24 25 25 26 26 27 26 25 25 24 24 23 22 21 20 20 19 18 18 18 18 18 17 16 14 12 10 9 9 8 7 8 7 6 6 5 5 4 5 7 7
16 17 18 19 20 20 21 22 23 24 24 25 26 26 27 27 28 28 27 26 26 26 24 23 21 21 20 20 20 20 21 21 21 20 19 18 16 13 12 11 10 9 9 9 9 8 7 6 5 5 7 8
16 18 19 20 21 21 23 23 24 25 24 25 27 27 27 27 28 29 28 28 28 28 27 24 22 21 21 20 21 22 24 25 26 25 24 22 21 19 17 13 12 11 12 14 12 11 12 11 13 11 8 9
16 19 20 21 22 23 24 24 25 25 25 26 27 28 28 28 28 29 30 29 29 29 28 25 23 21 21 21 22 25 26 27 30 32 32 30 27 27 26 21 17 13 13 17 16 16 14 14 33 42 26 10
18 20 21 22 22 24 24 25 26 26 26 27 27 29 29 29 28 29 30 30 30 30 30 28 24 22 22 21 24 27 29 30 32 35 40 42 38 36 36 32 26 17 14 18 20 21 17 25 56 60 32 19
19 20 21 22 23 24 24 25 26 26 27 28 29 29 29 30 30 29 29 29 30 30 31 31 28 24 23 22 24 27 31 34 34 38 45 50 49 46 44 41 36 26 19 18 20 22 19 28 48 42 27 30
21 21 21 22 22 23 25 26 26 27 29 29 29 30 30 31 32 30 28 29 30 30 31 33 31 28 24 23 24 26 32 36 37 41 48 53 55 53 51 49 45 36 27 22 20 23 23 22 25 24 25 28